COSMOS 1854

Satellite information

Favourite Embed

Satellite Type and Status

PAYLOADIN ORBIT

Key statistics

Satellite COSMOS 1854 at a glance.

Uptime

14015

Days in orbit

Revolutions

≈ 12.5

Per day

Orbit

LEO

Low Earth Orbit

Inclination

74.0

Latest

Satellite identification and parameters

Extended collection of information and parameters for COSMOS 1854.

Object identification

Identified? True

Debris? False

Object name: COSMOS 1854

International designator: 1987-051C

Object number (NORAD): 18115

Object ID (CCSDS): 18115

Country: COMMONWEALTH OF INDEPENDENT STATES (CIS)

Current information (Y/N): Y

RCS size: MEDIUM

Orbital parameters

Period: 115.309 minutes

Inclination: 74.0016 deg

SMA: 7847.557 km

Apoapsis: 1480.075 km

Periapsis: 1458.768 km

RAAN: 292.587 deg

Eccentricy: 0.00135758

Argument of periapsis: 48.6777 deg

Mean anomaly: 67.9761 deg

Mean motion: 12.48823539 rev/day

Mean motion (dot): 0.00000002 rev/day2

B* drag term: 0.00011823555 1/REarth

Two-line elements (TLE)

Creation date: Oct. 28, 2025, 7:11 p.m.

Reference frame: TEME

Reference center: EARTH

Epoch: Oct. 28, 2025, 11:03 a.m. UTC

TLE line 0: 0 COSMOS 1854

TLE line 1: 1 18115U 87051C 25301.46079247 .00000002 00000-0 11824-3 0 9998

TLE line 2: 2 18115 74.0016 292.5870 0013576 48.6777 67.9761 12.48823539749157

Live tracking on map

Real-time ground track for satellite COSMOS 1854.

In-orbit conjunctions

A list of the most updated potential collisions computed for object COSMOS 1854.

Target Orbit TCA Probability of collision Miss distance Type
COSMOS 712 LEO 2025-09-29 22:43:27 0.001013658 54.0 (m) PAYLOAD
DELTA 1 DEB SSO 2025-04-06 03:42:34 0.0001258368 983.0 (m) DEBRIS

Associated space launch

Military communications satellites

COSMOS 1854 was lifted into orbit during the mission ‘Kosmos-3M | Strela-1M 321-328’, on board a Kosmos-3M space rocket.

The launch took place on June 16, 1987, 5:51 p.m. from 132/1 (132L).

For more information about the launch, click the button.

Launch to space Kosmos-3M | Strela-1M 321-328
Kosmos-3M | Strela-1M 321-328

Agency: N/A

Status: Launch Successful

Launch date: June 16, 1987, 5:51 p.m. UTC

Rocket: Kosmos-3M

Launch pad: 132/1 (132L)

Location: Plesetsk Cosmodrome, Russian Federation

...

Latest news about this satellite

There are no fresh news available about this satellite. Check back as we update our databases every day.


Newsletter sign-up

Weekly statistics, charts and insights to help you stay on top of the space industry.